User: anonymous   Login
Location: Guayaquil
(2.1667°S, 79.9000°W)
Time: 09:18:42
(UTC-05:00)
Language:

NEE 01 PEGASUS - Orbit

View from above orbital plane
View from above orbital plane
View from above satellite
View from above satellite

Ground track
Ground track

The orbit data is extracted from the following two-line orbital elements,

1 39151U 13018B   17080.73371511 +.00000189 +00000-0 +32184-4 0  9996
2 39151 097.9831 172.8138 0016452 337.5743 022.4747 14.79664731210601
Epoch (UTC): 21 March 2017 17:36:32
Eccentricity: 0.0016452
inclination: 97.9831°
perigee height: 619 km
apogee height: 642 km
right ascension of ascending node: 172.8138°
argument of perigee: 337.5743°
revolutions per day: 14.79664731
mean anomaly at epoch: 22.4747°
orbit number at epoch: 21060

The dashed part of the orbit path shows where the satellite is in the earth's shadow,  

DLR